• In Russia
  • List of Countries
  • For 7 days
  • Water Temperature
  • Satellite Maps
  • Weather Map
  • Weather Widgets
  • user-avatar
    Login

    Hourly Weather Townsville

    Today, 29 April, Saturday

    Time Temperature Precipitation Wind Pressure Humidity
    00:00 +15°C° 0 mm 4 mps 755 mmHg 41%
    01:00 +15°C° 0 mm 4 mps 755 mmHg 41%
    02:00 +14°C° 0 mm 4 mps 755 mmHg 42%
    03:00 +14°C° 0 mm 4 mps 755 mmHg 42%
    04:00 +13°C° 0 mm 4 mps 755 mmHg 42%
    05:00 +13°C° 0 mm 4 mps 755 mmHg 43%
    06:00 +13°C° 0 mm 4 mps 755 mmHg 44%
    07:00 +13°C° 0 mm 4 mps 755 mmHg 45%
    08:00 +17°C° 0 mm 4 mps 755 mmHg 40%
    09:00 +20°C° 0 mm 4 mps 756 mmHg 35%
    10:00 +24°C° 0 mm 2 mps 756 mmHg 29%
    11:00 +26°C° 0 mm 2 mps 756 mmHg 27%
    12:00 +27°C° 0 mm 2 mps 755 mmHg 25%
    13:00 +28°C° 0 mm 2 mps 755 mmHg 23%
    14:00 +28°C° 0 mm 2 mps 754 mmHg 25%
    15:00 +27°C° 0 mm 3 mps 754 mmHg 27%
    16:00 +27°C° 0 mm 3 mps 754 mmHg 30%
    17:00 +24°C° 0 mm 3 mps 754 mmHg 40%
    18:00 +20°C° 0 mm 3 mps 754 mmHg 50%
    19:00 +18°C° 0 mm 3 mps 755 mmHg 60%
    20:00 +17°C° 0 mm 3 mps 755 mmHg 66%
    21:00 +17°C° 0 mm 3 mps 755 mmHg 73%
    22:00 +17°C° 0 mm 3 mps 755 mmHg 83%
    23:00 +17°C° 0 mm 3 mps 755 mmHg 86%

    Tomorrow, 30 April, Sunday

    Time Temperature Precipitation Wind Pressure Humidity
    00:00 +17°C° 0 mm 3 mps 755 mmHg 89%
    01:00 +16°C° 0 mm 2 mps 755 mmHg 92%
    02:00 +16°C° 0 mm 3 mps 755 mmHg 92%
    03:00 +16°C° 0 mm 3 mps 755 mmHg 93%
    04:00 +16°C° 0 mm 3 mps 755 mmHg 93%
    05:00 +16°C° 0 mm 3 mps 755 mmHg 91%
    06:00 +15°C° 0 mm 4 mps 755 mmHg 90%
    07:00 +17°C° 0 mm 4 mps 755 mmHg 88%
    08:00 +20°C° 0 mm 4 mps 755 mmHg 79%
    09:00 +22°C° 0 mm 4 mps 755 mmHg 70%
    10:00 +26°C° 0 mm 4 mps 755 mmHg 61%
    11:00 +27°C° 0.1 mm 5 mps 755 mmHg 61%
    12:00 +28°C° 0.1 mm 5 mps 754 mmHg 60%
    13:00 +29°C° 0.1 mm 5 mps 754 mmHg 59%
    14:00 +28°C° 0.2 mm 5 mps 754 mmHg 65%
    15:00 +27°C° 0.2 mm 6 mps 754 mmHg 70%
    16:00 +26°C° 0.2 mm 6 mps 753 mmHg 76%
    17:00 +24°C° 0.2 mm 6 mps 754 mmHg 80%
    18:00 +23°C° 0.2 mm 5 mps 754 mmHg 85%
    19:00 +21°C° 0.2 mm 5 mps 754 mmHg 89%
    20:00 +21°C° 0 mm 5 mps 755 mmHg 90%
    21:00 +20°C° 0 mm 5 mps 755 mmHg 90%
    22:00 +20°C° 0 mm 5 mps 755 mmHg 91%
    23:00 +20°C° 0 mm 5 mps 755 mmHg 92%

    Day after tomorrow, 1 May, Monday

    Time Temperature Precipitation Wind Pressure Humidity
    00:00 +19°C° 0 mm 5 mps 755 mmHg 93%
    01:00 +19°C° 0 mm 5 mps 755 mmHg 94%
    02:00 +19°C° 0.1 mm 4 mps 755 mmHg 95%
    03:00 +18°C° 0.1 mm 4 mps 755 mmHg 95%
    04:00 +18°C° 0.1 mm 4 mps 754 mmHg 96%
    05:00 +18°C° 0.1 mm 4 mps 755 mmHg 96%
    06:00 +18°C° 0.1 mm 4 mps 755 mmHg 96%
    07:00 +18°C° 0.1 mm 4 mps 755 mmHg 96%
    08:00 +21°C° 0 mm 4 mps 756 mmHg 86%
    09:00 +23°C° 0 mm 4 mps 756 mmHg 76%
    10:00 +27°C° 0 mm 4 mps 756 mmHg 66%
    11:00 +28°C° 0 mm 4 mps 755 mmHg 61%
    12:00 +29°C° 0 mm 4 mps 755 mmHg 55%
    13:00 +32°C° 0 mm 4 mps 754 mmHg 50%
    14:00 +30°C° 0 mm 4 mps 754 mmHg 54%
    15:00 +29°C° 0 mm 4 mps 753 mmHg 58%
    16:00 +29°C° 0 mm 5 mps 753 mmHg 61%
    17:00 +27°C° 0.2 mm 4 mps 753 mmHg 71%
    18:00 +25°C° 0.2 mm 4 mps 754 mmHg 81%
    19:00 +22°C° 0.2 mm 4 mps 754 mmHg 91%
    20:00 +22°C° 0.2 mm 4 mps 755 mmHg 93%
    21:00 +21°C° 0.2 mm 4 mps 755 mmHg 94%
    22:00 +21°C° 0.2 mm 4 mps 755 mmHg 95%
    23:00 +21°C° 0.1 mm 4 mps 755 mmHg 96%

    2 May, Tuesday

    Time Temperature Precipitation Wind Pressure Humidity
    00:00 +20°C° 0.1 mm 4 mps 755 mmHg 97%
    01:00 +20°C° 0.1 mm 4 mps 754 mmHg 98%
    02:00 +20°C° 0.2 mm 4 mps 754 mmHg 98%
    03:00 +19°C° 0.2 mm 4 mps 754 mmHg 98%
    04:00 +19°C° 0.2 mm 4 mps 754 mmHg 98%
    05:00 +19°C° 0 mm 4 mps 754 mmHg 98%
    06:00 +19°C° 0 mm 4 mps 755 mmHg 98%
    07:00 +19°C° 0 mm 3 mps 755 mmHg 98%
    08:00 +22°C° 0 mm 4 mps 755 mmHg 88%
    09:00 +25°C° 0 mm 4 mps 755 mmHg 78%
    10:00 +27°C° 0 mm 4 mps 755 mmHg 68%
    11:00 +28°C° 0.1 mm 4 mps 755 mmHg 65%
    12:00 +29°C° 0.1 mm 4 mps 754 mmHg 61%
    13:00 +30°C° 0.1 mm 4 mps 754 mmHg 57%
    14:00 +29°C° 0.4 mm 4 mps 753 mmHg 62%
    15:00 +29°C° 0.4 mm 4 mps 753 mmHg 66%
    16:00 +28°C° 0.4 mm 4 mps 753 mmHg 71%
    17:00 +26°C° 0.3 mm 4 mps 753 mmHg 79%
    18:00 +25°C° 0.3 mm 4 mps 754 mmHg 87%
    19:00 +22°C° 0.3 mm 4 mps 754 mmHg 94%
    20:00 +22°C° 0.1 mm 4 mps 754 mmHg 95%
    21:00 +22°C° 0.1 mm 4 mps 755 mmHg 95%
    22:00 +21°C° 0.1 mm 3 mps 755 mmHg 96%
    23:00 +21°C° 0 mm 3 mps 755 mmHg 96%

    3 May, Wednesday

    Time Temperature Precipitation Wind Pressure Humidity
    00:00 +21°C° 0 mm 3 mps 755 mmHg 96%
    01:00 +21°C° 0 mm 3 mps 755 mmHg 97%
    02:00 +20°C° 0 mm 3 mps 754 mmHg 97%
    03:00 +20°C° 0 mm 3 mps 754 mmHg 97%
    04:00 +20°C° 0 mm 3 mps 754 mmHg 97%
    05:00 +20°C° 0.3 mm 3 mps 754 mmHg 97%
    06:00 +20°C° 0.3 mm 3 mps 755 mmHg 97%
    07:00 +20°C° 0.3 mm 3 mps 755 mmHg 97%
    08:00 +22°C° 0.2 mm 3 mps 755 mmHg 86%
    09:00 +25°C° 0.2 mm 3 mps 756 mmHg 75%
    10:00 +28°C° 0.2 mm 3 mps 756 mmHg 64%
    11:00 +29°C° 0 mm 3 mps 755 mmHg 57%
    12:00 +30°C° 0 mm 3 mps 755 mmHg 51%
    13:00 +32°C° 0 mm 4 mps 754 mmHg 44%
    14:00 +32°C° 0 mm 4 mps 754 mmHg 47%
    15:00 +32°C° 0 mm 4 mps 754 mmHg 49%
    16:00 +30°C° 0 mm 4 mps 753 mmHg 51%
    17:00 +28°C° 0.1 mm 4 mps 754 mmHg 65%
    18:00 +26°C° 0.1 mm 4 mps 754 mmHg 78%
    19:00 +23°C° 0.1 mm 4 mps 755 mmHg 92%
    20:00 +23°C° 0.2 mm 4 mps 755 mmHg 93%
    21:00 +22°C° 0.2 mm 4 mps 756 mmHg 94%
    22:00 +22°C° 0.2 mm 4 mps 756 mmHg 95%
    23:00 +21°C° 0.1 mm 4 mps 756 mmHg 95%

    4 May, Thursday

    Time Temperature Precipitation Wind Pressure Humidity
    00:00 +21°C° 0.1 mm 4 mps 756 mmHg 95%
    01:00 +21°C° 0.1 mm 4 mps 755 mmHg 95%
    02:00 +20°C° 0 mm 4 mps 755 mmHg 94%
    03:00 +20°C° 0 mm 4 mps 755 mmHg 94%
    04:00 +19°C° 0 mm 4 mps 755 mmHg 93%
    05:00 +19°C° 0 mm 4 mps 755 mmHg 93%
    06:00 +19°C° 0 mm 4 mps 756 mmHg 92%
    07:00 +20°C° 0 mm 4 mps 756 mmHg 92%
    08:00 +22°C° 0 mm 5 mps 757 mmHg 81%
    09:00 +25°C° 0 mm 5 mps 757 mmHg 70%
    10:00 +28°C° 0 mm 5 mps 757 mmHg 59%
    11:00 +29°C° 0 mm 5 mps 756 mmHg 55%
    12:00 +30°C° 0 mm 5 mps 756 mmHg 51%
    13:00 +32°C° 0 mm 5 mps 755 mmHg 47%
    14:00 +32°C° 0 mm 5 mps 755 mmHg 48%
    15:00 +30°C° 0 mm 6 mps 755 mmHg 50%
    16:00 +30°C° 0 mm 6 mps 754 mmHg 52%
    17:00 +28°C° 0 mm 6 mps 755 mmHg 61%
    18:00 +27°C° 0 mm 6 mps 755 mmHg 70%
    19:00 +24°C° 0 mm 6 mps 756 mmHg 79%
    20:00 +23°C° 0.1 mm 6 mps 756 mmHg 81%
    21:00 +23°C° 0.1 mm 7 mps 756 mmHg 82%
    22:00 +22°C° 0.1 mm 7 mps 757 mmHg 84%
    23:00 +22°C° 0 mm 7 mps 756 mmHg 86%
    Show more